{"data":{"norad_id":62806,"intl_designator":"2025-018A","name":"STARLINK-32883","alt_names":[],"object_type":"PAYLOAD","status":"ACTIVE","operator":null,"country":"US","launch_date":"2025-01-24","launch_site_code":"AFWTR","launch_vehicle":null,"mission":null,"orbit_class":"UNKNOWN","rcs_meters":null,"size_class":null,"mass_kg":null,"dimensions":null,"purposes":["comms"],"wikipedia_slug":null,"has_3d_model":false,"image_url":null,"decayed_at":null,"tle_current":{"epoch":"2026-09-21T19:29:45.120192Z","epoch_age_seconds":58002,"freshness":"FRESH","line1":"1 62806U 25018A   26264.81232778  .00013208  00000+0  40144-3 0  9995","line2":"2 62806  53.1575 115.2331 0001302 101.8119 258.3029 15.34392712 94169","mean_motion":15.34392712,"eccentricity":0.0001302,"inclination_deg":53.1575,"raan_deg":115.2331,"arg_perigee_deg":101.8119,"mean_anomaly_deg":258.3029,"bstar":0.00040144,"rev_number":9416,"period_min":93.848203835838,"perigee_km":461.83422154511,"apogee_km":463.61558198433,"semimajor_km":6840.8619017647,"source":"CELESTRAK","updated_at":"2026-09-22T09:00:49.666288Z"}}}